Regional Weather Roundup
Issued by NWS

Home | Current Version | Previous Version | Graphics & Text | Print | Product List | Glossary On
Versions: 1 2 3 4 5 6 7 8 9 10 11 12 13 14 15 16 17 18 19 20 21 22 23 24 25 26 27 28 29 30 31 32 33 34 35 36 37 38 39 40 41 42 43 44 45 46 47 48 49 50
000
ASUS43 KFSD 240802
RWRSD

WEATHER ROUNDUP FOR SOUTH DAKOTA
NATIONAL WEATHER SERVICE SIOUX FALLS SD
200 AM CST FRI FEB 24 2017

NOTE: "FAIR" INDICATES FEW OR NO CLOUDS BELOW 12,000 FEET WITH NO
SIGNIFICANT WEATHER AND/OR OBSTRUCTIONS TO VISIBILITY.


SDZ001>005-009-010-012>017-240900-
NORTHWEST AND NORTH CENTRAL SOUTH DAKOTA

CITY           SKY/WX    TMP DP  RH WIND       PRES   REMARKS
BUFFALO          N/A     19  16  88 NE20      29.98S WCI   3
FAITH            N/A     19  17  92 N20       30.03R WCI   3
MOBRIDGE       CLOUDY    26  16  65 NE18G26   30.04F WCI  13
$$

SDZ012>016-024>037-041>051-057-063-072>074-240900-
SOUTHWEST AND SOUTH CENTRAL SOUTH DAKOTA

CITY           SKY/WX    TMP DP  RH WIND       PRES   REMARKS
RAPID CTY ARPT FLURRIES  24  21  88 N9        29.99S WCI  14
PIERRE         CLOUDY    26  19  74 N21G28    30.00R WCI  12
CUSTER         LGT SNOW  16  12  84 NE5       29.86S VSB 1   WCI   9
ELLSWORTH AFB  MIX PCPN  24  23  95 N8        29.99  WCI  16
PHILIP         CLOUDY    26  21  81 N17       30.01S WCI  13
PINE RIDGE     LGT SNOW  22  20  92 N8        29.95S FOG     WCI  12
SPEARFISH      LGT SNOW  21  21 100 CALM      29.98S
WINNER         FLURRIES  26  22  84 N17       29.94S WCI  13
$$

SDZ004>011-016>023-039-040-240900-
NORTHEAST SOUTH DAKOTA

CITY           SKY/WX    TMP DP  RH WIND       PRES   REMARKS
ABERDEEN       MOCLDY    21  13  71 N24G30    30.04S WCI   4
WATERTOWN      CLOUDY    19  13  77 N29G35    29.91S WCI   0
BROOKINGS      CLOUDY    24  20  84 N20G30    29.86R WCI  10
SISSETON         N/A     22  17  81 N21G30    30.01F WCI   6
$$

SDZ017-020-022-023-036>040-048>070-240900-
SOUTHEAST SOUTH DAKOTA

CITY           SKY/WX    TMP DP  RH WIND       PRES   REMARKS
SIOUX FALLS    CLOUDY    27  24  89 N20G28    29.83R WCI  13
HURON          CLOUDY    22  16  78 N21G29    29.98R WCI   6
CHAMBERLAIN    CLOUDY    26  23  88 N16G23    29.97R WCI  13
MITCHELL       CLOUDY    25  20  81 N26G33    29.93S WCI   9
YANKTON        CLOUDY   N/A N/A N/A N18G29    29.83R
$$

ABBREVIATIONS USED IN REMARKS
   TC - TEMPERATURE IN CELSIUS
  WCI - WIND CHILL INDEX
   HX - HEAT INDEX
  VSB - VISIBILITY





USA.gov is the U.S. government's official web portal to all federal, state and local government web resources and services.